| time (UTC) | temp C | wind direction | speed KPH | gust KPH | rain 1hr cm | rain 24hr cm | rain mn cm | humidity % | barometer mb |
| 20260505130111 | 10 | 0 | 0.0 | 1.6 | 0.00 | 0.53 | 0.20 | 97 | 1014.3 |
| 20260505125022 | 10 | 0 | 0.0 | 3.2 | 0.00 | 0.53 | 0.20 | 97 | 1014.3 |
| 20260505124540 | 10 | 0 | 0.0 | 3.2 | 0.00 | 0.53 | 0.20 | 97 | 1014.2 |
| 20260505124024 | 10 | 0 | 0.0 | 6.4 | 0.00 | 0.53 | 0.20 | 97 | 1014.1 |
| 20260505123525 | 10 | 130 | 0.0 | 6.4 | 0.00 | 0.53 | 0.20 | 97 | 1014.2 |
| 20260505123043 | 10 | 122 | 0.0 | 3.2 | 0.00 | 0.53 | 0.20 | 97 | 1014.3 |
| 20260505122526 | 10 | 0 | 0.0 | 0.0 | 0.00 | 0.53 | 0.20 | 97 | 1014.2 |
| 20260505122028 | 10 | 0 | 0.0 | 1.6 | 0.00 | 0.53 | 0.20 | 97 | 1014.3 |
| 20260505121540 | 10 | 0 | 0.0 | 1.6 | 0.00 | 0.53 | 0.20 | 97 | 1014.3 |
| 20260505121026 | 10 | 127 | 0.0 | 4.8 | 0.00 | 0.53 | 0.20 | 97 | 1014.4 |
| 20260505120526 | 10 | 0 | 0.0 | 4.8 | 0.00 | 0.53 | 0.20 | 97 | 1014.3 |
| 20260505120038 | 10 | 115 | 0.0 | 1.6 | 0.00 | 0.53 | 0.20 | 97 | 1014.3 |
| 20260505115527 | 10 | 0 | 0.0 | 0.0 | 0.00 | 0.53 | 0.20 | 97 | 1014.3 |
| 20260505115022 | 10 | 0 | 0.0 | 0.0 | 0.00 | 0.53 | 0.20 | 97 | 1014.2 |
| 20260505114537 | 10 | 147 | 0.0 | 1.6 | 0.00 | 0.53 | 0.20 | 97 | 1014.2 |
| 20260505114025 | 10 | 0 | 0.0 | 1.6 | 0.00 | 0.53 | 0.20 | 97 | 1014.2 |
| 20260505113521 | 10 | 0 | 0.0 | 0.0 | 0.00 | 0.53 | 0.20 | 97 | 1014.2 |
| 20260505113049 | 10 | 0 | 0.0 | 1.6 | 0.00 | 0.53 | 0.20 | 97 | 1014.1 |
| 20260505112522 | 10 | 0 | 0.0 | 1.6 | 0.00 | 0.53 | 0.20 | 97 | 1014.2 |
| 20260505112026 | 10 | 0 | 0.0 | 1.6 | 0.00 | 0.53 | 0.20 | 97 | 1014.2 |
| 20260505111541 | 10 | 124 | 0.0 | 0.0 | 0.00 | 0.53 | 0.20 | 97 | 1014.1 |
| 20260505111026 | 10 | 0 | 0.0 | 0.0 | 0.00 | 0.53 | 0.20 | 97 | 1014.1 |
| 20260505110527 | 10 | 0 | 0.0 | 0.0 | 0.00 | 0.53 | 0.20 | 97 | 1014.2 |
| 20260505102025 | 10 | 0 | 0.0 | 1.6 | 0.00 | 0.53 | 0.20 | 97 | 1014.3 |
| 20260505101539 | 10 | 0 | 0.0 | 1.6 | 0.00 | 0.53 | 0.20 | 97 | 1014.3 |
| 20260505101026 | 10 | 0 | 0.0 | 1.6 | 0.00 | 0.53 | 0.20 | 97 | 1014.2 |
| 20260505100526 | 10 | 0 | 0.0 | 1.6 | 0.03 | 0.53 | 0.20 | 97 | 1014.3 |
| 20260505100040 | 10 | 105 | 0.0 | 1.6 | 0.03 | 0.53 | 0.20 | 97 | 1014.3 |
| 20260505095526 | 10 | 0 | 0.0 | 1.6 | 0.03 | 0.53 | 0.20 | 97 | 1014.3 |
| 20260505095025 | 10 | 0 | 0.0 | 1.6 | 0.03 | 0.53 | 0.20 | 97 | 1014.4 |
| 20260505094540 | 10 | 0 | 0.0 | 1.6 | 0.03 | 0.53 | 0.20 | 97 | 1014.4 |
| 20260505094025 | 10 | 161 | 0.0 | 0.0 | 0.03 | 0.53 | 0.20 | 97 | 1014.3 |
| 20260505093525 | 10 | 0 | 0.0 | 1.6 | 0.03 | 0.53 | 0.20 | 97 | 1014.4 |
| 20260505093037 | 10 | 0 | 0.0 | 1.6 | 0.03 | 0.53 | 0.20 | 97 | 1014.5 |
| 20260505092529 | 10 | 0 | 0.0 | 1.6 | 0.03 | 0.53 | 0.20 | 97 | 1014.4 |
| 20260505092024 | 10 | 0 | 0.0 | 1.6 | 0.03 | 0.53 | 0.20 | 97 | 1014.5 |
| 20260505091541 | 10 | 99 | 0.0 | 0.0 | 0.03 | 0.53 | 0.20 | 97 | 1014.5 |
| 20260505091028 | 10 | 0 | 0.0 | 1.6 | 0.03 | 0.53 | 0.20 | 97 | 1014.8 |
| 20260505090526 | 10 | 0 | 0.0 | 1.6 | 0.03 | 0.51 | 0.18 | 97 | 1014.9 |
| 20260505090040 | 10 | 0 | 0.0 | 0.0 | 0.05 | 0.51 | 0.18 | 97 | 1015.0 |
| 20260505085527 | 10 | 0 | 0.0 | 0.0 | 0.05 | 0.51 | 0.18 | 97 | 1014.9 |
| 20260505085026 | 10 | 0 | 0.0 | 0.0 | 0.05 | 0.51 | 0.18 | 97 | 1015.0 |
| 20260505084541 | 10 | 0 | 0.0 | 0.0 | 0.08 | 0.51 | 0.18 | 97 | 1015.0 |
| 20260505084025 | 10 | 0 | 0.0 | 0.0 | 0.10 | 0.51 | 0.18 | 97 | 1014.8 |
| 20260505083525 | 10 | 0 | 0.0 | 0.0 | 0.13 | 0.51 | 0.18 | 97 | 1014.9 |
| 20260505083038 | 10 | 0 | 0.0 | 0.0 | 0.15 | 0.51 | 0.18 | 97 | 1015.1 |
| 20260505082525 | 10 | 0 | 0.0 | 0.0 | 0.18 | 0.51 | 0.18 | 97 | 1015.1 |
| 20260505082026 | 10 | 0 | 0.0 | 0.0 | 0.18 | 0.51 | 0.18 | 97 | 1015.1 |
| 20260505081544 | 10 | 0 | 0.0 | 0.0 | 0.18 | 0.51 | 0.18 | 97 | 1015.0 |
| 20260505081025 | 10 | 0 | 0.0 | 0.0 | 0.18 | 0.51 | 0.18 | 97 | 1015.0 |
| 20260505080525 | 10 | 0 | 0.0 | 0.0 | 0.15 | 0.48 | 0.15 | 97 | 1015.1 |
| 20260505080048 | 10 | 0 | 0.0 | 1.6 | 0.13 | 0.46 | 0.13 | 96 | 1014.9 |
| 20260505075526 | 10 | 0 | 0.0 | 1.6 | 0.13 | 0.46 | 0.13 | 96 | 1014.9 |
| 20260505075027 | 10 | 0 | 0.0 | 0.0 | 0.13 | 0.46 | 0.13 | 96 | 1015.0 |
| 20260505074541 | 10 | 0 | 0.0 | 0.0 | 0.10 | 0.43 | 0.10 | 96 | 1014.8 |
| 20260505074027 | 10 | 0 | 0.0 | 3.2 | 0.08 | 0.41 | 0.08 | 96 | 1014.9 |
| 20260505073527 | 10 | 0 | 0.0 | 3.2 | 0.05 | 0.38 | 0.05 | 96 | 1015.0 |
| 20260505073048 | 10 | 0 | 0.0 | 3.2 | 0.03 | 0.36 | 0.03 | 96 | 1015.2 |
| 20260505072526 | 10 | 162 | 0.0 | 1.6 | 0.00 | 0.33 | 0.00 | 96 | 1015.1 |
| 20260505072025 | 10 | 0 | 0.0 | 1.6 | 0.00 | 0.33 | 0.00 | 96 | 1015.4 |
| 20260505071549 | 10 | 0 | 0.0 | 1.6 | 0.03 | 0.33 | 0.00 | 96 | 1015.4 |
| 20260505071025 | 10 | 0 | 0.0 | 1.6 | 0.03 | 0.33 | 0.00 | 96 | 1015.4 |
| 20260505070526 | 10 | 0 | 0.0 | 1.6 | 0.03 | 0.33 | 0.00 | 96 | 1015.3 |
| 20260505070038 | 10 | 161 | 0.0 | 3.2 | 0.05 | 0.33 | 0.00 | 96 | 1015.2 |
| 20260505065529 | 10 | 0 | 0.0 | 3.2 | 0.05 | 0.33 | 0.33 | 96 | 1015.2 |
| 20260505065026 | 10 | 0 | 0.0 | 0.0 | 0.05 | 0.33 | 0.33 | 96 | 1015.2 |
| 20260505064542 | 10 | 0 | 0.0 | 0.0 | 0.05 | 0.33 | 0.33 | 96 | 1015.2 |
| 20260505064026 | 10 | 0 | 0.0 | 1.6 | 0.08 | 0.33 | 0.33 | 96 | 1015.0 |
| 20260505063526 | 10 | 0 | 0.0 | 1.6 | 0.08 | 0.33 | 0.33 | 96 | 1014.9 |
| 20260505063039 | 10 | 0 | 0.0 | 0.0 | 0.08 | 0.33 | 0.33 | 95 | 1014.7 |
| 20260505062525 | 10 | 0 | 0.0 | 0.0 | 0.08 | 0.33 | 0.33 | 95 | 1014.8 |
| 20260505062026 | 10 | 0 | 0.0 | 0.0 | 0.10 | 0.33 | 0.33 | 95 | 1015.1 |
| 20260505061539 | 10 | 0 | 0.0 | 0.0 | 0.08 | 0.30 | 0.30 | 95 | 1015.1 |
| 20260505061025 | 10 | 0 | 0.0 | 0.0 | 0.08 | 0.30 | 0.30 | 95 | 1015.2 |
| 20260505060528 | 10 | 0 | 0.0 | 0.0 | 0.08 | 0.30 | 0.30 | 95 | 1015.2 |
| 20260505060040 | 10 | 0 | 0.0 | 0.0 | 0.08 | 0.28 | 0.28 | 95 | 1015.2 |
| 20260505055525 | 10 | 0 | 0.0 | 0.0 | 0.08 | 0.28 | 0.28 | 95 | 1015.1 |
| 20260505055026 | 10 | 0 | 0.0 | 0.0 | 0.10 | 0.28 | 0.28 | 95 | 1015.2 |
| 20260505054551 | 10 | 0 | 0.0 | 0.0 | 0.10 | 0.28 | 0.28 | 95 | 1015.3 |
| 20260505054025 | 10 | 0 | 0.0 | 0.0 | 0.10 | 0.25 | 0.25 | 94 | 1015.2 |
| 20260505053525 | 10 | 0 | 0.0 | 0.0 | 0.13 | 0.25 | 0.25 | 94 | 1015.2 |
| 20260505053054 | 10 | 0 | 0.0 | 0.0 | 0.15 | 0.25 | 0.25 | 94 | 1015.2 |
| 20260505052525 | 10 | 0 | 0.0 | 0.0 | 0.15 | 0.25 | 0.25 | 94 | 1015.2 |
| 20260505052026 | 10 | 0 | 0.0 | 1.6 | 0.15 | 0.23 | 0.23 | 94 | 1015.2 |
| 20260505051543 | 10 | 0 | 0.0 | 1.6 | 0.18 | 0.23 | 0.23 | 94 | 1015.2 |
| 20260505051025 | 10 | 0 | 0.0 | 0.0 | 0.18 | 0.23 | 0.23 | 93 | 1015.2 |
| 20260505050526 | 10 | 0 | 0.0 | 0.0 | 0.18 | 0.23 | 0.23 | 93 | 1015.3 |
| 20260505041537 | 11 | 143 | 0.0 | 1.6 | 0.05 | 0.05 | 0.05 | 92 | 1015.9 |
| 20260505041025 | 11 | 0 | 0.0 | 0.0 | 0.05 | 0.05 | 0.05 | 92 | 1015.7 |
| 20260505040525 | 11 | 0 | 0.0 | 0.0 | 0.05 | 0.05 | 0.05 | 92 | 1015.7 |
| 20260505040044 | 11 | 0 | 0.0 | 0.0 | 0.05 | 0.05 | 0.05 | 91 | 1015.5 |
| 20260505035526 | 11 | 0 | 0.0 | 0.0 | 0.05 | 0.05 | 0.05 | 91 | 1015.4 |
| 20260505035024 | 11 | 0 | 0.0 | 0.0 | 0.05 | 0.05 | 0.05 | 91 | 1015.1 |
| 20260505034538 | 11 | 0 | 0.0 | 1.6 | 0.05 | 0.05 | 0.05 | 90 | 1014.9 |
| 20260505034027 | 11 | 0 | 0.0 | 3.2 | 0.03 | 0.03 | 0.03 | 89 | 1014.7 |
| 20260505033526 | 11 | 167 | 0.0 | 3.2 | 0.03 | 0.03 | 0.03 | 89 | 1014.6 |
| 20260505033044 | 11 | 169 | 0.0 | 1.6 | 0.03 | 0.03 | 0.03 | 88 | 1014.6 |
| 20260505032526 | 11 | 0 | 0.0 | 1.6 | 0.00 | 0.00 | 0.00 | 88 | 1014.4 |
| 20260505032028 | 11 | 0 | 0.0 | 0.0 | 0.00 | 0.00 | 0.00 | 87 | 1014.4 |
| 20260505031539 | 11 | 0 | 0.0 | 0.0 | 0.00 | 0.00 | 0.00 | 86 | 1014.4 |
| 20260505031026 | 12 | 0 | 0.0 | 0.0 | 0.00 | 0.00 | 0.00 | 85 | 1014.4 |
| 20260505030525 | 12 | 0 | 0.0 | 0.0 | 0.00 | 0.00 | 0.00 | 84 | 1014.4 |
| 20260505030038 | 12 | 0 | 0.0 | 0.0 | 0.00 | 0.00 | 0.00 | 83 | 1014.5 |
| 20260505025526 | 12 | 168 | 0.0 | 1.6 | 0.00 | 0.00 | 0.00 | 83 | 1014.4 |
| 20260505025024 | 12 | 0 | 0.0 | 1.6 | 0.00 | 0.00 | 0.00 | 82 | 1014.5 |
| 20260505024544 | 12 | 168 | 0.0 | 1.6 | 0.00 | 0.00 | 0.00 | 84 | 1014.6 |
| 20260505024026 | 12 | 0 | 0.0 | 0.0 | 0.00 | 0.00 | 0.00 | 85 | 1014.6 |
| 20260505023525 | 12 | 0 | 0.0 | 0.0 | 0.00 | 0.00 | 0.00 | 85 | 1014.6 |
| 20260505023045 | 12 | 0 | 0.0 | 0.0 | 0.00 | 0.00 | 0.00 | 84 | 1014.5 |
| 20260505022526 | 12 | 0 | 0.0 | 0.0 | 0.00 | 0.00 | 0.00 | 83 | 1014.5 |
| 20260505022026 | 12 | 0 | 0.0 | 0.0 | 0.00 | 0.00 | 0.00 | 83 | 1014.3 |
| 20260505021538 | 12 | 0 | 0.0 | 0.0 | 0.00 | 0.00 | 0.00 | 82 | 1014.3 |
| 20260505021025 | 12 | 0 | 0.0 | 0.0 | 0.00 | 0.00 | 0.00 | 82 | 1014.4 |
| 20260505020525 | 12 | 0 | 0.0 | 0.0 | 0.00 | 0.00 | 0.00 | 80 | 1014.4 |
| 20260505020038 | 12 | 0 | 0.0 | 0.0 | 0.00 | 0.00 | 0.00 | 81 | 1014.4 |
| 20260505015525 | 12 | 0 | 0.0 | 0.0 | 0.00 | 0.00 | 0.00 | 80 | 1014.4 |
| 20260505015026 | 12 | 0 | 0.0 | 3.2 | 0.00 | 0.00 | 0.00 | 80 | 1014.5 |
| 20260505014538 | 13 | 0 | 0.0 | 3.2 | 0.00 | 0.00 | 0.00 | 80 | 1014.5 |
| 20260505014025 | 13 | 169 | 0.0 | 1.6 | 0.00 | 0.00 | 0.00 | 80 | 1014.6 |
| 20260505013525 | 13 | 0 | 0.0 | 1.6 | 0.00 | 0.00 | 0.00 | 81 | 1014.7 |
| 20260505013044 | 13 | 0 | 0.0 | 0.0 | 0.00 | 0.00 | 0.00 | 83 | 1014.8 |
| 20260505012526 | 13 | 0 | 0.0 | 0.0 | 0.00 | 0.00 | 0.00 | 82 | 1014.7 |
| 20260505012023 | 13 | 0 | 0.0 | 0.0 | 0.00 | 0.00 | 0.00 | 82 | 1014.8 |
| 20260505011549 | 13 | 0 | 0.0 | 1.6 | 0.00 | 0.00 | 0.00 | 83 | 1014.8 |
| 20260505011021 | 13 | 0 | 0.0 | 3.2 | 0.00 | 0.00 | 0.00 | 83 | 1014.8 |
| 20260505010526 | 13 | 0 | 0.0 | 4.8 | 0.00 | 0.00 | 0.00 | 84 | 1014.8 |
| 20260505010042 | 13 | 0 | 0.0 | 4.8 | 0.00 | 0.00 | 0.00 | 85 | 1014.9 |
| 20260505005530 | 13 | 0 | 0.0 | 1.6 | 0.00 | 0.00 | 0.00 | 85 | 1014.9 |
| 20260505005022 | 13 | 112 | 0.0 | 1.6 | 0.00 | 0.00 | 0.00 | 85 | 1015.1 |
| 20260505004540 | 13 | 120 | 0.0 | 4.8 | 0.00 | 0.00 | 0.00 | 86 | 1015.0 |
| 20260505004025 | 13 | 128 | 0.0 | 4.8 | 0.00 | 0.00 | 0.00 | 86 | 1015.2 |
| 20260505003525 | 13 | 125 | 0.0 | 4.8 | 0.00 | 0.00 | 0.00 | 86 | 1015.2 |
| 20260505003038 | 13 | 108 | 0.0 | 4.8 | 0.00 | 0.00 | 0.00 | 86 | 1015.2 |
| 20260505002525 | 13 | 131 | 0.0 | 6.4 | 0.00 | 0.00 | 0.00 | 86 | 1015.2 |
| 20260505002022 | 13 | 0 | 0.0 | 6.4 | 0.00 | 0.00 | 0.00 | 86 | 1015.2 |
| 20260505001539 | 13 | 0 | 0.0 | 6.4 | 0.00 | 0.00 | 0.00 | 86 | 1015.2 |
| 20260505001025 | 13 | 101 | 0.0 | 6.4 | 0.00 | 0.00 | 0.00 | 85 | 1015.1 |
| 20260505000527 | 13 | 0 | 1.6 | 3.2 | 0.00 | 0.00 | 0.00 | 84 | 1014.9 |
| 20260505000038 | 13 | 129 | 0.0 | 8.0 | 0.00 | 0.00 | 0.00 | 85 | 1015.0 |
| 20260504235525 | 13 | 0 | 0.0 | 8.0 | 0.00 | 0.00 | 0.00 | 85 | 1015.0 |
| 20260504235025 | 13 | 0 | 0.0 | 4.8 | 0.00 | 0.00 | 0.00 | 84 | 1015.0 |
| 20260504234543 | 13 | 124 | 0.0 | 4.8 | 0.00 | 0.00 | 0.00 | 84 | 1015.0 |
| 20260504234022 | 14 | 0 | 0.0 | 4.8 | 0.00 | 0.00 | 0.00 | 84 | 1015.0 |
| 20260504233522 | 14 | 0 | 0.0 | 4.8 | 0.00 | 0.00 | 0.00 | 84 | 1015.0 |
| 20260504233042 | 14 | 0 | 0.0 | 4.8 | 0.00 | 0.00 | 0.00 | 83 | 1014.8 |
| 20260504232523 | 14 | 0 | 0.0 | 4.8 | 0.00 | 0.00 | 0.00 | 82 | 1014.9 |
| 20260504232025 | 14 | 146 | 0.0 | 3.2 | 0.00 | 0.00 | 0.00 | 82 | 1014.8 |
| 20260504231539 | 14 | 143 | 0.0 | 4.8 | 0.00 | 0.00 | 0.00 | 80 | 1014.6 |
| 20260504231027 | 15 | 0 | 0.0 | 6.4 | 0.00 | 0.00 | 0.00 | 79 | 1014.7 |
| 20260504230525 | 15 | 143 | 0.0 | 6.4 | 0.00 | 0.00 | 0.00 | 78 | 1014.7 |
| 20260504230038 | 15 | 132 | 0.0 | 6.4 | 0.00 | 0.00 | 0.00 | 77 | 1014.8 |
| 20260504225526 | 15 | 117 | 0.0 | 4.8 | 0.00 | 0.00 | 0.00 | 77 | 1014.8 |
| 20260504225026 | 15 | 127 | 1.6 | 4.8 | 0.00 | 0.00 | 0.00 | 76 | 1014.7 |
| 20260504224537 | 15 | 106 | 0.0 | 3.2 | 0.00 | 0.00 | 0.00 | 76 | 1014.9 |
| 20260504224025 | 15 | 145 | 0.0 | 3.2 | 0.00 | 0.00 | 0.00 | 76 | 1014.9 |
| 20260504223526 | 16 | 125 | 0.0 | 3.2 | 0.00 | 0.00 | 0.00 | 75 | 1014.9 |
| 20260504223038 | 16 | 0 | 0.0 | 6.4 | 0.00 | 0.00 | 0.00 | 75 | 1015.0 |
| 20260504222524 | 16 | 133 | 0.0 | 6.4 | 0.00 | 0.00 | 0.00 | 75 | 1015.0 |
| 20260504222024 | 16 | 0 | 0.0 | 6.4 | 0.00 | 0.00 | 0.00 | 73 | 1015.1 |
| 20260504221543 | 16 | 131 | 0.0 | 4.8 | 0.00 | 0.00 | 0.00 | 74 | 1015.0 |
| 20260504221025 | 16 | 0 | 0.0 | 6.4 | 0.00 | 0.00 | 0.00 | 74 | 1015.1 |
| 20260504220525 | 16 | 129 | 1.6 | 6.4 | 0.00 | 0.00 | 0.00 | 73 | 1015.0 |
| 20260504220051 | 16 | 138 | 1.6 | 8.0 | 0.00 | 0.00 | 0.00 | 73 | 1015.0 |
| 20260504215525 | 16 | 138 | 1.6 | 8.0 | 0.00 | 0.00 | 0.00 | 74 | 1015.1 |
| 20260504215027 | 16 | 142 | 0.0 | 6.4 | 0.00 | 0.00 | 0.00 | 75 | 1015.2 |
| 20260504214548 | 16 | 124 | 1.6 | 6.4 | 0.00 | 0.00 | 0.00 | 74 | 1015.1 |
| 20260504214027 | 16 | 110 | 0.0 | 4.8 | 0.00 | 0.00 | 0.00 | 73 | 1015.0 |
| 20260504213525 | 16 | 0 | 0.0 | 4.8 | 0.00 | 0.00 | 0.00 | 76 | 1015.1 |
| 20260504213047 | 16 | 0 | 0.0 | 6.4 | 0.00 | 0.00 | 0.00 | 78 | 1015.1 |
| 20260504212526 | 16 | 104 | 0.0 | 6.4 | 0.00 | 0.00 | 0.00 | 78 | 1015.1 |
| 20260504212025 | 16 | 0 | 0.0 | 6.4 | 0.00 | 0.00 | 0.00 | 78 | 1015.1 |
| 20260504211538 | 16 | 143 | 0.0 | 6.4 | 0.00 | 0.00 | 0.00 | 78 | 1015.1 |
| 20260504211025 | 15 | 132 | 1.6 | 6.4 | 0.00 | 0.00 | 0.00 | 78 | 1015.0 |
| 20260504210525 | 15 | 122 | 0.0 | 3.2 | 0.00 | 0.00 | 0.00 | 77 | 1015.2 |
| 20260504210038 | 15 | 111 | 0.0 | 9.7 | 0.00 | 0.00 | 0.00 | 78 | 1015.2 |
| 20260504205525 | 15 | 0 | 0.0 | 9.7 | 0.00 | 0.00 | 0.00 | 79 | 1015.4 |
| 20260504205024 | 15 | 143 | 3.2 | 9.7 | 0.00 | 0.00 | 0.00 | 78 | 1015.4 |
| 20260504204539 | 15 | 129 | 1.6 | 9.7 | 0.00 | 0.00 | 0.00 | 79 | 1015.4 |
| 20260504204025 | 15 | 130 | 3.2 | 9.7 | 0.00 | 0.00 | 0.00 | 79 | 1015.3 |
| 20260504203522 | 15 | 130 | 1.6 | 6.4 | 0.00 | 0.00 | 0.00 | 79 | 1015.4 |
| 20260504203041 | 15 | 139 | 0.0 | 8.0 | 0.00 | 0.00 | 0.00 | 79 | 1015.3 |
| 20260504202527 | 15 | 0 | 1.6 | 8.0 | 0.00 | 0.00 | 0.00 | 80 | 1015.2 |
| 20260504202025 | 15 | 115 | 1.6 | 11.3 | 0.00 | 0.00 | 0.00 | 80 | 1015.3 |
| 20260504201539 | 15 | 156 | 0.0 | 11.3 | 0.00 | 0.00 | 0.00 | 80 | 1015.3 |
| 20260504201025 | 15 | 139 | 1.6 | 8.0 | 0.00 | 0.00 | 0.00 | 79 | 1015.3 |
| 20260504200525 | 15 | 143 | 1.6 | 8.0 | 0.00 | 0.00 | 0.00 | 79 | 1015.3 |
| 20260504200043 | 15 | 0 | 3.2 | 9.7 | 0.00 | 0.00 | 0.00 | 78 | 1015.4 |
| 20260504195525 | 15 | 110 | 1.6 | 9.7 | 0.00 | 0.00 | 0.00 | 79 | 1015.4 |
| 20260504195026 | 15 | 143 | 1.6 | 11.3 | 0.00 | 0.00 | 0.00 | 78 | 1015.5 |
| 20260504194541 | 15 | 116 | 3.2 | 11.3 | 0.00 | 0.00 | 0.00 | 78 | 1015.5 |
| 20260504194027 | 15 | 149 | 1.6 | 16.1 | 0.00 | 0.00 | 0.00 | 78 | 1015.3 |
| 20260504193526 | 15 | 137 | 1.6 | 16.1 | 0.00 | 0.00 | 0.00 | 79 | 1015.4 |
| 20260504193037 | 15 | 93 | 3.2 | 9.7 | 0.00 | 0.00 | 0.00 | 78 | 1015.4 |
| 20260504192527 | 16 | 155 | 1.6 | 9.7 | 0.00 | 0.00 | 0.00 | 78 | 1015.2 |
| 20260504192026 | 16 | 129 | 1.6 | 8.0 | 0.00 | 0.00 | 0.00 | 76 | 1015.3 |
| 20260504191552 | 16 | 141 | 1.6 | 8.0 | 0.00 | 0.00 | 0.00 | 76 | 1015.3 |
| 20260504191027 | 16 | 120 | 1.6 | 11.3 | 0.00 | 0.00 | 0.00 | 77 | 1015.4 |
| 20260504190526 | 16 | 148 | 1.6 | 11.3 | 0.00 | 0.00 | 0.00 | 75 | 1015.3 |
| 20260504190049 | 16 | 127 | 1.6 | 11.3 | 0.00 | 0.00 | 0.00 | 75 | 1015.4 |
| 20260504185525 | 16 | 0 | 0.0 | 11.3 | 0.00 | 0.00 | 0.00 | 75 | 1015.3 |
| 20260504185025 | 16 | 145 | 1.6 | 8.0 | 0.00 | 0.00 | 0.00 | 75 | 1015.3 |
| 20260504184552 | 15 | 139 | 0.0 | 8.0 | 0.00 | 0.00 | 0.00 | 76 | 1015.4 |
| 20260504184026 | 15 | 151 | 1.6 | 8.0 | 0.00 | 0.00 | 0.00 | 75 | 1015.4 |
| 20260504183527 | 15 | 145 | 1.6 | 9.7 | 0.00 | 0.00 | 0.00 | 75 | 1015.4 |
| 20260504183047 | 15 | 102 | 1.6 | 9.7 | 0.00 | 0.00 | 0.00 | 76 | 1015.4 |
| 20260504182526 | 15 | 104 | 0.0 | 6.4 | 0.00 | 0.00 | 0.00 | 79 | 1015.4 |
| 20260504182026 | 15 | 134 | 0.0 | 6.4 | 0.00 | 0.00 | 0.00 | 77 | 1015.4 |
| 20260504181546 | 15 | 140 | 0.0 | 4.8 | 0.00 | 0.00 | 0.00 | 78 | 1015.3 |
| 20260504181027 | 15 | 155 | 0.0 | 4.8 | 0.00 | 0.00 | 0.00 | 78 | 1015.3 |
| 20260504180525 | 15 | 117 | 0.0 | 3.2 | 0.00 | 0.00 | 0.00 | 78 | 1015.4 |
| 20260504180038 | 15 | 0 | 0.0 | 6.4 | 0.00 | 0.00 | 0.00 | 78 | 1015.3 |
| 20260504175525 | 15 | 0 | 0.0 | 6.4 | 0.00 | 0.00 | 0.00 | 78 | 1015.2 |
| 20260504175028 | 15 | 136 | 0.0 | 6.4 | 0.00 | 0.00 | 0.00 | 79 | 1015.1 |
| 20260504174541 | 15 | 0 | 1.6 | 4.8 | 0.00 | 0.00 | 0.00 | 78 | 1015.1 |
| 20260504174026 | 15 | 126 | 1.6 | 4.8 | 0.00 | 0.00 | 0.00 | 79 | 1015.0 |
| 20260504173526 | 15 | 143 | 0.0 | 4.8 | 0.00 | 0.00 | 0.00 | 79 | 1015.1 |
| 20260504173040 | 15 | 0 | 0.0 | 6.4 | 0.00 | 0.00 | 0.00 | 80 | 1015.1 |
| 20260504172525 | 15 | 127 | 0.0 | 6.4 | 0.00 | 0.00 | 0.00 | 80 | 1015.2 |
| 20260504172024 | 15 | 0 | 0.0 | 4.8 | 0.00 | 0.00 | 0.00 | 79 | 1015.1 |
| 20260504171539 | 14 | 126 | 0.0 | 4.8 | 0.00 | 0.00 | 0.00 | 78 | 1014.9 |
| 20260504171026 | 14 | 0 | 0.0 | 4.8 | 0.00 | 0.00 | 0.00 | 78 | 1014.9 |
| 20260504170523 | 14 | 123 | 1.6 | 4.8 | 0.00 | 0.00 | 0.00 | 78 | 1014.7 |
| 20260504151025 | 10 | 0 | 0.0 | 0.0 | 0.00 | 0.00 | 0.00 | 96 | 1014.8 |
| 20260504150525 | 10 | 0 | 0.0 | 0.0 | 0.00 | 0.00 | 0.00 | 96 | 1014.7 |
| 20260504141025 | 9 | 0 | 0.0 | 0.0 | 0.00 | 0.00 | 0.00 | 96 | 1014.6 |
| 20260504140525 | 9 | 0 | 0.0 | 0.0 | 0.00 | 0.00 | 0.00 | 96 | 1014.6 |